{"data":{"norad_id":48775,"epoch":"2026-05-25T01:53:42.232128Z","epoch_age_seconds":68100,"freshness":"FRESH","line1":"1 48775U 21045J   26145.07896102  .00000166  00000+0  40802-3 0  9993","line2":"2 48775  87.8998 263.7894 0001629  99.1969 260.9346 13.15547065241365","mean_motion":13.15547065,"eccentricity":0.0001629,"inclination_deg":87.8998,"raan_deg":263.7894,"arg_perigee_deg":99.1969,"mean_anomaly_deg":260.9346,"bstar":0.00040802,"rev_number":24136,"period_min":109.46016591204,"perigee_km":1200.5417037294,"apogee_km":1203.0112395385,"semimajor_km":7579.9134716339,"source":"CELESTRAK","updated_at":"2026-05-25T13:38:22.442980Z"}}